Back to catalog

CZ-6A DEB

AlivePO
NORAD 61839·DEBRIS·🇨🇳 China

Launched Aug 6, 2024 from Taiyuan Satellite Launch Center

Loading…

Next Passes (next 24 hours)

TLE

StaleSource: Space-Track

Epoch: Sep 2, 2026, 18:54 UTC

1 61839U 24140ADF 26245.78816542  .00002345  00000-0  76717-3 0  9993
2 61839  88.9246 257.6664 0024341 155.0944 205.1436 14.38075210107644

Track CZ-6A DEB in real time with AllMySat

Download on the App Store